Flag for Argentina Weather past 2 weeks in Buenos Aires, Argentina

73 °F

Scattered clouds.

Feels Like: 76 °F
Forecast: N/A
Wind: 17 mph from Southwest

Location: Buenos Aires Airport

Current Time: Nov 27, 2015 at 6:25:43 PM

Latest Report: Nov 27, 2015 at 6:00 PM

Visibility: N/A

Pressure: 29.68 "Hg

Humidity: 61%

Dew point: 59 °F

Location of Buenos AiresLocation

Historic Weather in Buenos Aires — Graph


Buenos Aires temperature yesterday

Maximum temperature yesterday: 73 °F (at 4:00 PM)
Minimum temperature yesterday: 64 °F (at 7:00 AM)
Average temperature yesterday: 69 °F

Past Weeks' High & Low Weather Summary

High79 °F (Nov 15, 2:00 PM)100% (Nov 13, 1:00 AM)30.01 "Hg (Nov 13, 1:00 AM)
Low37 °F (Nov 19, 5:00 PM)26% (Nov 20, 1:00 PM)29.47 "Hg (Nov 13, 2:00 AM)
Average68 °F69%29.83 "Hg
* Reported Nov 12 5:00 PM — Nov 27 5:00 PM, Buenos Aires, Weather by CustomWeather, © 2015

Note: Actual official high and low records may vary slightly from our data, if they occured in-between our weather recording intervals... More about our weather records


Buenos Aires weather history for previous 24 hours

Time TempWeatherWind HumidityBarometerVisibility
5:00 PM
Fri, Nov 27
72 °FScattered clouds.14 mph83%29.68 "HgN/A
2:00 PM68 °FHeavy rain. Broken clouds.16 mph88%29.71 "Hg1 mi
1:00 PM68 °FLow clouds.16 mph88%29.71 "HgN/A
12:00 PM68 °FBroken clouds.7 mph88%29.71 "HgN/A
11:00 AM66 °FPartly sunny.14 mph88%29.71 "HgN/A
10:00 AM66 °FPartly sunny.23 mph94%29.71 "HgN/A
9:00 AM64 °FPartly sunny.23 mph100%29.68 "HgN/A
8:00 AM66 °FThunderstorms. Partly sunny.16 mph94%29.77 "Hg2 mi
7:00 AM66 °FThunderstorms. Broken clouds.23 mph94%29.71 "Hg1 mi
6:00 AM66 °FThunderstorms. Mostly cloudy.23 mph94%29.74 "Hg2 mi
5:00 AM66 °FThunderstorms. Mostly cloudy.5 mph88%29.74 "Hg1 mi
12:00 AM70 °FPassing clouds.9 mph88%29.80 "HgN/A
11:00 PM
Thu, Nov 26
72 °FClear.15 mph78%29.77 "Hg10 mi
10:00 PM72 °FClear.10 mph78%29.80 "Hg10 mi
9:00 PM73 °FPassing clouds.7 mph74%29.86 "HgN/A
8:00 PM73 °FPassing clouds.10 mph74%29.86 "HgN/A
7:00 PM72 °FPassing clouds.10 mph78%29.86 "HgN/A
6:00 PM70 °FScattered clouds.16 mph78%29.86 "HgN/A
Weather by CustomWeather, © 2015

See weather overviewHow to use our weather pages